Home > Weather > Clarington > Past weeks

Flag for Canada Weather for the Past 2 Weeks in Clarington, Ontario, Canada

Now
-17 °F

Sunny.


Feels Like: -38 °F
Forecast: -13 / -2 °F
Wind: 12 mph from Northwest

Location: Peterborough Airport

Current Time: Feb 13, 2016 at 10:33:56 AM

Latest Report: Feb 13, 2016 at 10:00 AM


Visibility: 9 mi

Pressure: 30.36 "Hg

Humidity: 57%

Dew point: -27 °F

Location of ClaringtonLocation

Historic Weather in Clarington — Graph

°F

Clarington Temperature Yesterday

Maximum temperature yesterday: 23 °F (at 12:00 PM)
Minimum temperature yesterday: 3 °F (at 12:00 AM)
Average temperature yesterday: 15 °F

High & Low Weather Summary for the Past Weeks

 TemperatureHumidityPressure
High54 °F (Feb 3, 4:00 PM)100% (Jan 30, 11:00 PM)30.38 "Hg (Jan 30, 11:00 PM)
Low-18 °F (Feb 13, 7:00 AM)51% (Feb 11, 3:00 PM)29.42 "Hg (Feb 1, 1:00 AM)
Average26 °F80%29.90 "Hg
* Reported Jan 29 9:00 AM — Feb 13 9:00 AM, Clarington, Weather by CustomWeather, © 2016

Note: Actual official high and low records may vary slightly from our data, if they occured in-between our weather recording intervals... More about our weather records

Advertising

Clarington Weather History for the Previous 24 Hours

 ConditionsComfort  
Time TempWeatherWind HumidityBarometerVisibility
9:00 AM
Sat, Feb 13
-18 °FSunny.17 mph56%30.34 "Hg9 mi
8:00 AM-18 °FSunny.15 mph56%30.31 "Hg9 mi
7:00 AM-18 °FClear.17 mph62%30.27 "Hg9 mi
6:00 AM-17 °FClear.13 mph63%30.24 "Hg9 mi
5:00 AM-15 °FClear.13 mph63%30.21 "Hg9 mi
4:00 AM-11 °FClear.13 mph70%30.16 "Hg9 mi
3:00 AM-8 °FClear.18 mph70%30.11 "Hg9 mi
2:00 AM-4 °FClear.16 mph71%30.07 "Hg9 mi
1:00 AM1 °FClear.14 mph78%30.03 "Hg9 mi
12:00 AM5 °FClear.17 mph78%29.98 "Hg9 mi
11:00 PM
Fri, Feb 12
7 °FClear.9 mph78%29.95 "Hg9 mi
10:00 PM10 °FClear.10 mph72%29.91 "Hg9 mi
9:00 PM12 °FPartly cloudy.15 mph73%29.90 "Hg9 mi
8:01 PM16 °FLight snow. Passing clouds.14 mph86%29.87 "Hg9 mi
7:00 PM14 °FLight snow. Overcast.8 mph92%29.85 "Hg9 mi
6:00 PM18 °FLight snow. Overcast.9 mph93%29.83 "Hg2 mi
5:00 PM19 °FLight snow. Mostly cloudy.14 mph93%29.82 "Hg1 mi
4:00 PM23 °FLight snow. Partly sunny.10 mph68%29.81 "Hg9 mi
3:53 PM21 °FLight snow. Partly sunny.14 mph74%29.80 "Hg6 mi
3:00 PM23 °FLight snow. Mostly cloudy.16 mph63%29.81 "Hg9 mi
2:00 PM23 °FPartly sunny.17 mph58%29.83 "Hg9 mi
1:00 PM23 °FMostly cloudy.17 mph58%29.86 "Hg9 mi
12:00 PM23 °FOvercast.20 mph58%29.89 "Hg9 mi
11:00 AM21 °FOvercast.12 mph63%29.92 "Hg9 mi
10:00 AM19 °FOvercast.10 mph63%29.94 "Hg9 mi
Weather by CustomWeather, © 2016

See weather overviewHow to use our weather pages